COSMOS 2251 DEB, 34569

Orbit data source: Space-Track

COSMOS 2251 DEB, 34569 is space debris in LEO originally from a launch on Wed, 16 Jun 1993 UTC launched from the Plesetsk Missile And Space Complex (PKMTR). The debris from Iridium 33, an American commercial communications satellite, has been tracked extensively since its accidental collision with the defunct Russian satellite Cosmos 2251 in 2009. This event, occurring at high speed in low Earth orbit (LEO), generated thousands of pieces of space debris, significantly increasing the risk of further collisions. The Iridium 33 debris cloud has impacted space traffic management and orbital debris mitigation strategies, making it a subject of ongoing study in space situational awareness.

Loading next visibility...
Identifier
34569, 1993-036VF
Orbit
LEO
Country
Flag of CISCIS
Related business
Manufacturer
Unknown
Mission
Spacecraft
Bus & Motor
Unknown
Mass
Unknown
Launch date (UTC)
1993-06-16 (33 years ago)
Launch vehicle
Unknown
Launch site
Plesetsk Missile And Space Complex (PKMTR)
Object type
Payload
Rocket body
Debris
Shape & HBR
Unknown shape, 0.1 m
Radar Cross Section
Small (<0.1 m²)

Expand to show TLE details & history
Last TLE update: 10 hours ago

TLE from 10 hours ago
0 COSMOS 2251 DEB
1 34569U 93036VF  26124.21444390  .00001581  00000-0  60076-3 0  9997
2 34569  73.9900 300.4022 0157375  96.5846  76.4109 14.25188194889975
Epoch: 2026-05-04T05:08Z
TLE epoch observation values (Epoch: 2026-05-04T05:08:47.952Z)
Latitude
4.96007°
Longitude
179.67622°
Altitude
785.064 km
Speed
7.475 km/s
True Right ascension
07h 55m 55s
True Declination
4° 55' 50"
Sunlit
Object was in daylight at epoch
Visualization orbit readout
Latitude
Unknown
Longitude
Unknown
Altitude
Unknown
Speed
Unknown
Apparent Right ascension
Unknown
Apparent Declination
Unknown
Sunlit
N/A
Visualization observer readout
Local Sidereal Time
22:39:34
Azimuth
Unknown
Elevation
Unknown
Doppler factor
Unknown
Orbital elements
Apogee altitude
918.551 km
Perigee altitude
692.447 km
Semi-major axis
7,183.636 km
Eccentricity
0.01574
Inclination
73.99°
RAAN
300.4022°
Arg. of periapsis
96.5846°
True anomaly
78.17166°
Mean anomaly
76.4109°
Eccentric anomaly
77.2905°
Mean motion
3.56473 °/min
Orbital period
100.99 mins
BSTAR
0.00060076
Loading maneuver chart data...
Computing Atmospheric mass density...

Documentation

Showing up to 5 results
|